Lid_Strength_Index
4 4 4 5 5 4 4 3 3 4 4 5 5 5 5 4 4 4 3 3 3 3 3 3 2 2 5 10 9 6 -1 -1 0 4 8 7 9 11 13 13 12 13 12 10 10 10 10
4 4 4 5 5 5 5 5 5 5 5 5 5 5 5 5 4 4 4 4 3 3 3 2 2 3 7 13 8 3 0 1 3 6 7 7 8 8 11 12 12 12 12 11 11 11 11
5 4 4 5 5 5 5 5 5 4 5 4 5 5 5 5 4 4 4 4 3 3 3 2 3 3 7 11 4 5 1 4 4 5 7 6 6 9 11 12 11 11 13 12 11 11 10
5 5 5 5 5 5 5 5 5 5 5 5 5 5 5 5 5 4 4 3 3 3 3 2 3 5 11 6 5 4 3 4 5 5 6 5 7 9 11 11 11 13 14 16 13 11 10
4 5 5 5 5 5 5 5 5 5 5 5 5 5 5 5 5 5 4 4 4 3 3 3 6 9 9 2 4 3 4 5 5 4 5 4 7 10 11 13 15 15 18 17 14 12 11
5 5 5 5 5 5 5 5 5 5 5 5 5 5 5 5 5 5 5 5 3 3 3 4 4 10 7 6 4 3 4 4 5 6 8 8 11 13 14 14 18 17 17 16 15 12 12
5 5 6 6 6 6 6 5 5 5 5 5 5 5 5 5 5 5 7 8 9 10 7 9 9 9 7 5 4 7 4 5 6 8 11 11 13 15 14 13 13 13 15 15 13 10 12
5 5 5 6 6 6 5 5 5 5 5 5 5 5 5 6 5 6 8 10 8 8 11 7 6 7 6 6 7 6 6 9 9 12 11 13 14 12 11 11 12 13 14 14 12 11 12
5 5 5 5 6 5 5 5 5 5 5 5 5 5 5 5 6 8 10 8 6 7 11 9 7 7 7 6 8 7 7 9 11 12 12 14 12 10 11 12 12 13 14 14 14 11 11
4 5 5 5 5 4 4 4 5 5 4 5 5 6 6 6 9 10 10 7 7 7 14 11 10 7 6 6 8 5 6 8 10 12 12 13 11 11 13 13 12 15 11 12 12 14 16
4 4 4 4 4 4 4 4 5 4 4 4 5 5 5 6 11 11 8 8 9 8 19 9 9 6 8 9 9 8 7 8 11 12 12 13 13 13 13 12 9 11 9 10 11 13 16
3 4 4 3 3 4 4 4 4 4 4 4 5 5 5 9 10 10 8 9 8 13 18 10 10 11 11 10 10 9 8 8 8 11 12 12 10 11 11 9 8 8 10 11 14 16 18
3 3 2 3 3 4 4 4 4 4 4 4 4 5 6 8 11 9 9 9 15 17 10 12 11 10 12 12 11 11 11 13 14 16 16 13 12 10 8 11 9 10 14 19 20 20 18
2 2 2 3 3 3 4 4 4 4 4 4 4 5 7 7 8 9 8 12 18 14 12 10 11 11 13 11 11 11 12 13 11 13 15 16 17 11 8 10 13 13 13 18 23 21 17
2 2 2 3 3 3 4 4 4 4 4 4 5 9 9 7 6 8 10 15 16 13 11 12 11 13 13 12 12 12 13 13 11 11 15 16 15 9 8 8 10 13 16 13 17 16 19
2 2 2 3 3 3 4 4 4 4 4 5 8 11 8 5 6 8 12 15 12 10 10 11 14 12 14 14 13 13 14 11 11 10 12 13 16 11 9 8 9 12 10 17 16 21 23
2 2 2 2 3 3 4 4 4 4 4 5 10 10 7 7 5 9 14 12 10 9 10 11 13 13 13 13 13 14 13 11 10 11 11 13 14 14 11 12 13 13 15 14 14 16 21
2 2 2 2 2 3 3 4 4 4 4 7 10 12 7 6 9 13 14 11 9 10 9 10 10 11 12 12 13 13 13 12 9 10 13 12 14 16 13 10 9 11 13 14 18 19 17
2 3 2 2 2 2 3 4 4 4 4 8 12 12 8 7 12 13 11 10 9 10 10 11 12 11 12 13 15 12 12 10 9 10 11 10 15 18 16 14 11 13 12 12 13 14 17
3 3 3 2 2 2 3 4 4 4 4 9 11 13 12 11 11 12 12 11 11 8 9 10 12 11 12 13 12 14 13 11 10 10 6 9 14 15 17 15 14 15 13 12 13 19 16
3 2 2 2 2 2 3 3 4 4 4 8 10 12 13 15 13 12 12 10 11 11 10 10 12 12 13 16 14 14 14 13 12 7 9 12 14 14 13 12 12 12 13 12 14 14 16
2 2 2 2 2 2 3 4 4 4 5 10 12 12 11 12 11 12 10 11 11 10 11 12 12 12 12 15 14 15 14 15 14 12 12 12 15 14 15 12 12 13 12 12 12 13 13
2 2 2 2 2 2 3 4 4 3 5 11 9 9 10 10 10 11 10 9 10 10 10 10 11 12 13 12 11 12 12 13 13 12 14 14 14 16 16 14 13 16 13 13 12 11 12
3 3 2 2 2 3 3 4 4 4 5 8 9 9 10 12 11 11 10 10 11 11 11 11 10 11 10 8 10 12 13 12 11 11 12 15 15 13 17 15 19 13 10 10 11 10 10
2 2 2 2 2 2 2 4 5 4 4 8 7 8 10 12 11 11 10 10 10 9 11 10 9 8 8 11 13 15 15 13 11 10 12 11 11 15 17 19 14 13 11 11 13 13 10
2 2 2 2 2 2 2 3 4 4 4 6 7 7 8 11 12 9 11 11 12 12 11 11 9 8 9 12 14 17 18 14 16 13 10 11 10 13 15 19 20 13 9 8 9 15 11
3 2 2 2 2 2 2 2 4 4 4 5 6 6 8 10 9 9 11 11 10 11 13 12 11 10 9 14 16 17 17 11 16 16 16 16 13 16 16 17 15 10 9 9 16 16 11
3 3 2 3 2 2 2 2 3 4 3 5 7 5 7 9 9 8 8 10 10 10 13 11 12 11 11 15 15 15 16 14 14 13 15 14 15 15 15 17 18 9 10 15 13 11 10
3 3 3 3 3 3 2 2 3 3 3 4 7 5 5 9 9 8 7 7 8 8 10 10 12 12 10 14 15 15 16 15 16 19 10 15 12 14 14 16 11 10 11 10 10 11 11